NOAA 16 DEB, 42359

Orbit data source: Space-Track

NOAA 16 DEB, 42359 is space debris in SSO originally from a launch on Thu, 21 Sep 2000 UTC launched from the Air Force Western Test Range (AFWTR). Debris objects in space refer to the collection of defunct objects orbiting the Earth. Examples of debris include non-operational satellites, rocket bodies, and fragments generated from explosions, collisions, or faulty payload assembly.

Loading next visibility...
Identifier
42359, 2000-055RB
Orbit
SSO
Country
Flag of USUS
Related business
Manufacturer
Unknown
Mission
Spacecraft
Bus & Motor
Unknown
Mass
Unknown
Launch date (UTC)
2000-09-21 (26 years ago)
Launch vehicle
Unknown
Launch site
Air Force Western Test Range (AFWTR)
Object type
Payload
Rocket body
Debris
Shape & HBR
Unknown shape, 0.1 m
Radar Cross Section
Small (<0.1 m²)

Expand to show TLE details & history
Last TLE update: 2 weeks ago

TLE from 2 weeks ago
0 NOAA 16 DEB
1 42359U 00055RB  26112.29915608  .00004435  00000-0  12409-2 0  9999
2 42359  98.9725 287.7158 0013024 352.0577   8.0405 14.46608158522337
Epoch: 2026-04-22T07:10Z
TLE epoch observation values (Epoch: 2026-04-22T07:10:47.085Z)
Latitude
-0.00002°
Longitude
-30.34296°
Altitude
730.513 km
Speed
7.495 km/s
True Right ascension
19h 10m 51s
True Declination
0° 00' 00"
Sunlit
Object was in daylight at epoch
Visualization orbit readout
Latitude
Unknown
Longitude
Unknown
Altitude
Unknown
Speed
Unknown
Apparent Right ascension
Unknown
Apparent Declination
Unknown
Sunlit
N/A
Visualization observer readout
Local Sidereal Time
18:38:22
Azimuth
Unknown
Elevation
Unknown
Doppler factor
Unknown
Orbital elements
Apogee altitude
743.147 km
Perigee altitude
724.622 km
Semi-major axis
7,112.021 km
Eccentricity
0.0013
Inclination
98.9725°
RAAN
287.7158°
Arg. of periapsis
352.0577°
True anomaly
8.06141°
Mean anomaly
8.0405°
Eccentric anomaly
8.05095°
Mean motion
3.61871 °/min
Orbital period
99.48 mins
BSTAR
0.0012409
Loading maneuver chart data...
Computing Atmospheric mass density...
Loading historical data...
Loading historical data...
Loading historical data...
Loading historical data...
Loading historical data...
Loading historical data...
Loading historical data...

Documentation

Showing up to 5 results
|